Location: Kershaw
(34.5481°N, 80.5823°W)
Time: 22:31:16
(UTC+00:00)

Vanguard 2 Rocket - Pass Details

Date: 06 October 2022
Orbit: 555 x 3321 km, 32.9° (Epoch: 28 November)

Event Time Altitude Azimuth Distance (km) Brightness Sun altitude
Rises 02:53:26 0° 242° (WSW) 7,249 11.7 -46.7°
Reaches altitude 10° 02:58:38 10° 240° (WSW) 6,080 11.2 -47.6°
Enters shadow 03:10:15 43° 226° (SW) 3,426 9.6 -49.5°
